Location: Chuathbaluk
(61.5726°N, 159.2454°W)
Time: 02:53:57
(UTC+00:00)

TIGRISAT - Pass Details

Date: 19 January 2021
Orbit: 605 x 688 km, 97.7° (Epoch: 05 March)

Event Time Altitude Azimuth Distance (km) Brightness Sun altitude
Rises 17:06:27 0° 163° (SSE) 2,863 ? -15.5°
Reaches altitude 10° 17:08:36 10° 165° (SSE) 1,968 ? -15.2°
Maximum altitude 17:12:53 83° 253° (WSW) 632 ? -14.8°
Drops below altitude 10° 17:17:17 10° 342° (NNW) 2,018 ? -14.2°
Enters shadow 17:18:10 - 343° (NNW) 2,382 ? -14.1°
